Location: Isle of Man Observatory
(54.1776°N, 4.6264°W)
Time: 15:28:41
(UTC+02:00)

ARIANE 6 FM1 Upper Stage - Pass Details

Date: 22 April 2026
Orbit: 526 x 601 km, 62.0° (Epoch: 19 May)

Event Time Altitude Azimuth Distance (km) Brightness Sun altitude
Rises 02:49:26 0° 303° (WNW) 2,675 6.4 -23.3°
Reaches altitude 10° 02:51:53 10° 290° (WNW) 1,777 5.3 -23.3°
Enters shadow 02:52:46 15° 282° (WNW) 1,502 4.8 -23.2°
